Location: Pace/Milton
(30.6162°N, 87.1503°W)
Time: 12:10:04
(UTC-06:00)

N. Korean satellite - Pass Details

Date: 07 December 2021
Orbit: 447 x 491 km, 97.3° (Epoch: 21 January)

Event Time Altitude Azimuth Distance (km) Brightness Sun altitude
Rises 17:19:50 0° 209° (SSW) 2,528 11.1 -7.2°
Reaches altitude 10° 17:22:58 10° 240° (WSW) 1,642 10.9 -7.8°
Maximum altitude 17:24:29 12° 265° (W) 1,499 10.4 -8.1°
Drops below altitude 10° 17:26:00 10° 291° (WNW) 1,635 10.0 -8.4°
Sets 17:29:07 0° 322° (NW) 2,504 10.4 -9.1°
